Regional Weather Roundup
Issued by NWS

Home | Current Version | Previous Version | Graphics & Text | Print | Product List | Glossary On
Versions: 1 2 3 4 5 6 7 8 9 10 11 12 13 14 15 16 17 18 19 20 21 22 23 24 25 26 27 28 29 30 31 32 33 34 35 36 37 38 39 40 41 42 43 44 45 46 47 48 49 50
000
ASUS43 KOAX 300202
RWRNE

WEATHER ROUNDUP FOR NEBRASKA
NATIONAL WEATHER SERVICE OMAHA NE
900 PM CDT WED MAR 29 2017

NOTES: SATELLITE DATA IS BEING USED TO AUGMENT CLOUD COVER ABOVE
       12000 FEET.
       "FAIR" INDICATES FEW OR NO CLOUDS BELOW 12,000 FEET WITH NO
       SIGNIFICANT WEATHER AND/OR OBSTRUCTIONS TO VISIBILITY.

  * THESE STATIONS DO NOT REPORT WEATHER SUCH AS RAIN...SNOW OR FOG.

NEZ001>004-019>022-054>056-300300-
NEBRASKA PANHANDLE

CITY           SKY/WX    TMP DP  RH WIND       PRES   REMARKS
SCOTTSBLUFF    CLEAR     46  38  73 SE9       29.95S
ALLIANCE       CLEAR     39  34  82 E6        29.95S WCI  35
CHADRON        MOCLDY    48  39  71 E6        29.94F
KIMBALL        CLEAR     41  38  89 E6        29.96F
SIDNEY         CLEAR     40  34  79 E6        29.97S
$$

NEZ057>060-069>072-079>082-300300-
SOUTHWEST NEBRASKA

CITY           SKY/WX    TMP DP  RH WIND       PRES   REMARKS
NORTH PLATTE   CLOUDY    41  36  82 N8        29.94F
IMPERIAL       CLOUDY    39  35  86 N8        29.95F WCI  33
LEXINGTON      CLOUDY    41  39  90 N15G23    29.91S
MCCOOK         CLOUDY    42  39  89 N17       29.91S
OGALLALA       CLOUDY    46  39  76 NE6       29.95F
$$

NEZ005>010-023>029-035>040-094-300300-
NORTH CENTRAL NEBRASKA

CITY           SKY/WX    TMP DP  RH WIND       PRES   REMARKS
VALENTINE      CLOUDY    40  35  83 E8        29.99S WCI  34
AINSWORTH      CLOUDY    42  38  85 NE8       29.98S
BROKEN BOW     CLOUDY    40  37  89 N13G22    29.92S WCI  32
O`NEILL        CLOUDY    39  39  97 NE13      29.97F WCI  32
ORD            LGT RAIN  40  36  86 NE14G24   29.92S WCI  32
THEDFORD       CLOUDY    42  38  85 N14       29.97S
$$

NEZ041-046>049-061>064-073>077-083>087-300300-
SOUTH CENTRAL NEBRASKA

CITY           SKY/WX    TMP DP  RH WIND       PRES   REMARKS
GRAND ISLAND   LGT RAIN  40  40 100 NE18G29   29.86S FOG     WCI  31
AURORA         LGT RAIN  40  40  98 NE20G28   29.84S WCI  31
HASTINGS       LGT RAIN  41  38  89 N17       29.84S
HEBRON         LGT RAIN  42  40  94 N16G24    29.76S
HOLDREGE       LGT RAIN  38  36  91 N17G26    29.87F WCI  28
KEARNEY *      CLOUDY    37  32  81 N21G28    29.88S WCI  27
YORK           LGT RAIN  41  41 100 NE18      29.82S
$$

NEZ011>018-030>034-042>045-300300-
NORTHEAST NEBRASKA

CITY           SKY/WX    TMP DP  RH WIND       PRES   REMARKS
NORFOLK        CLOUDY    39  36  89 NE13      29.90S WCI  31
ALBION         LGT RAIN  40  37  89 N14       29.91S WCI  32
BLAIR          CLOUDY    41  40  94 NE24G35   29.80F
FREMONT        CLOUDY    41  40  95 NE10G23   29.84F
TEKAMAH        CLOUDY    42  38  85 NE23G30   29.85F
WAYNE          CLOUDY    40  39  95 E18       29.92S WCI  31
$$

NEZ050>053-065>068-078-088>093-300300-
SOUTHEAST NEBRASKA

CITY           SKY/WX    TMP DP  RH WIND       PRES   REMARKS
LINCOLN        LGT RAIN  42  40  92 NE20G28   29.79F
OMAHA EPPLEY   DRIZZLE   43  38  82 NE21G29   29.82F
BEATRICE       CLOUDY    43  42  97 NE20      29.71F
FALLS CITY     LGT RAIN  49  48  97 VRB5      29.71R
NEBRASKA CITY  CLOUDY    43  43 100 NE21      29.74F
PLATTSMOUTH    CLOUDY    42  39  90 N16G25    29.76F
$$

NEZ044-045-051>053-067-300300-
OMAHA AREA

CITY           SKY/WX    TMP DP  RH WIND       PRES   REMARKS
OMAHA EPPLEY   DRIZZLE   43  38  82 NE21G29   29.82F
BLAIR          CLOUDY    41  40  94 NE24G35   29.80F
FREMONT        CLOUDY    41  40  95 NE10G23   29.84F
MILLARD        CLOUDY    43  42  94 NE13G22   29.79F
OFFUTT AFB     CLOUDY    42  39  90 N22G30    29.77F
PLATTSMOUTH    CLOUDY    42  39  90 N16G25    29.76F
WAHOO          CLOUDY    41  39  93 NE20G29   29.81F
$$



USA.gov is the U.S. government's official web portal to all federal, state and local government web resources and services.